sat.trackr.live / text

‹ back to catalog

STARLINK-11456 [DTC]

NORAD 62064 · 2024-217H

PAYLOAD ACTIVE UNKNOWN

§ Identity

Operator
Country
US
Launch date
2024-11-24
Launch site
AFWTR
Launch vehicle
Mass (kg)
RCS (m²)

Purposes: comms

External: N2YO · Heavens-Above · Gunter

§ Orbital elements

Epoch: 2026-05-25T03:27:41.794272Z

Period
91.73 min
Inclination
53.1570°
Eccentricity
0.0000963
Mean motion
15.69788360 rev/d
Perigee alt
358.9 km
Apogee alt
360.2 km
Semi-major
6,737.6 km
B*
1.9818e-3
RAAN
54.2108°
Arg perigee
104.3368°
Mean anomaly
255.7757°
Rev number
8,718

§ Raw data

STARLINK-11456 [DTC]1 62064U 24217H   26145.14423373  .00247617  00000+0  19818-2 0  99942 62064  53.1570  54.2108 0000963 104.3368 255.7757 15.69788360 87189

JSON: /api/v1/satellites/62064 · /tle

For live sub-satellite position, see the globe view (requires WebGL).

§ Visibility from observer

Set your observer location to see the next 7 days of passes ≥ 10°. The values pass through the URL so the page stays shareable.

No JS? Fill the form by hand. The geolocation button needs JavaScript.